TimeCST,TemperatureF,Dew PointF,Humidity,Sea Level PressureIn,VisibilityMPH,Wind Direction,Wind SpeedMPH,Gust SpeedMPH,PrecipitationIn,Events,Conditions,WindDirDegrees,DateUTC
12:52 AM,69.1,63.0,81,29.74,10.0,South,17.3,27.6,N/A,,Mostly Cloudy,180,2011-11-08 06:52:00
1:52 AM,69.1,63.0,81,29.73,10.0,South,20.7,26.5,N/A,,Overcast,180,2011-11-08 07:52:00
2:15 AM,69.8,62.6,78,29.80,10.0,South,16.1,25.3,N/A,,Mostly Cloudy,180,2011-11-08 08:15:00
2:35 AM,69.8,62.6,78,29.81,10.0,South,16.1,28.8,N/A,,Overcast,180,2011-11-08 08:35:00
2:44 AM,69.8,62.6,78,29.80,10.0,South,19.6,25.3,N/A,,Overcast,180,2011-11-08 08:44:00
2:52 AM,69.1,63.0,81,29.73,10.0,South,17.3,27.6,N/A,,Overcast,180,2011-11-08 08:52:00
3:31 AM,69.8,62.6,78,29.81,10.0,South,18.4,26.5,N/A,,Overcast,190,2011-11-08 09:31:00
3:52 AM,70.0,63.0,78,29.75,10.0,SSW,16.1,25.3,0.00,Rain,Light Rain,210,2011-11-08 09:52:00
4:52 AM,62.1,55.0,78,29.79,10.0,West,12.7,-,0.01,,Mostly Cloudy,270,2011-11-08 10:52:00
5:52 AM,59.0,55.9,90,29.83,10.0,NW,16.1,-,N/A,,Mostly Cloudy,310,2011-11-08 11:52:00
6:15 AM,57.2,55.4,94,29.90,10.0,NW,15.0,26.5,N/A,,Mostly Cloudy,320,2011-11-08 12:15:00
6:52 AM,57.0,55.0,93,29.86,10.0,NNW,12.7,-,N/A,,Mostly Cloudy,330,2011-11-08 12:52:00
7:32 AM,55.4,53.6,94,29.93,10.0,NNW,12.7,-,N/A,,Overcast,340,2011-11-08 13:32:00
7:52 AM,55.0,53.1,93,29.90,10.0,NW,12.7,-,N/A,,Overcast,320,2011-11-08 13:52:00
8:42 AM,55.4,51.8,88,29.97,10.0,WNW,10.4,-,N/A,,Scattered Clouds,300,2011-11-08 14:42:00
8:52 AM,55.9,52.0,87,29.93,10.0,NW,8.1,-,N/A,,Partly Cloudy,320,2011-11-08 14:52:00
9:52 AM,59.0,50.0,72,29.93,10.0,West,10.4,-,N/A,,Clear,270,2011-11-08 15:52:00
10:52 AM,64.0,48.9,58,29.94,10.0,WNW,16.1,-,N/A,,Clear,300,2011-11-08 16:52:00
11:52 AM,64.9,39.0,39,29.94,10.0,West,17.3,26.5,N/A,,Clear,270,2011-11-08 17:52:00
12:52 PM,66.0,33.1,29,29.92,10.0,West,13.8,23.0,N/A,,Clear,270,2011-11-08 18:52:00
1:52 PM,66.9,28.0,23,29.92,10.0,West,15.0,26.5,N/A,,Clear,280,2011-11-08 19:52:00
2:52 PM,66.0,28.0,24,29.93,10.0,WNW,19.6,28.8,N/A,,Clear,290,2011-11-08 20:52:00
3:52 PM,66.0,25.0,21,29.94,10.0,West,16.1,24.2,N/A,,Clear,280,2011-11-08 21:52:00
4:52 PM,64.0,25.0,23,29.97,10.0,West,15.0,20.7,N/A,,Clear,280,2011-11-08 22:52:00
5:52 PM,62.1,24.1,23,30.00,10.0,WNW,11.5,-,N/A,,Clear,290,2011-11-08 23:52:00
6:52 PM,57.9,26.1,30,30.04,10.0,WNW,5.8,-,N/A,,Clear,290,2011-11-09 00:52:00
7:52 PM,57.0,28.9,34,30.08,10.0,WNW,12.7,-,N/A,,Clear,300,2011-11-09 01:52:00
8:52 PM,54.0,43.0,66,30.14,10.0,North,16.1,-,N/A,,Clear,350,2011-11-09 02:52:00
9:52 PM,51.1,39.9,66,30.18,10.0,North,20.7,26.5,N/A,,Clear,350,2011-11-09 03:52:00
10:52 PM,48.0,36.0,63,30.21,10.0,North,20.7,-,N/A,,Clear,350,2011-11-09 04:52:00
11:52 PM,46.0,37.0,71,30.22,10.0,NNW,20.7,-,N/A,,Clear,340,2011-11-09 05:52:00